Home   Weather   Cluj-Napoca   Past weeks

Flag for Romania Past Weather in Cluj-Napoca, Romania — Yesterday and Last 2 Weeks

Now
52 °F

Clear.


Feels Like: 49 °F
Forecast: 43 / 70 °F
Wind: 9 mph from East

Location: Cluj Airport-Napoca

Current Time: Apr 26, 2017 at 1:51:02 am

Latest Report: Apr 26, 2017 at 1:00 am


Visibility: 10 mi

Pressure: 29.95 "Hg

Humidity: 58%

Dew Point: 37 °F

Location of Cluj-NapocaLocation

Past Weather in Cluj-Napoca — Graph

°F

Cluj-Napoca Temperature Yesterday

Maximum temperature yesterday: 66 °F (at 3:00 pm)
Minimum temperature yesterday: 28 °F (at 6:30 am)
Average temperature yesterday: 50 °F

High & Low Weather Summary for the Past Weeks

 TemperatureHumidityPressure
High66 °F (Apr 11, 1:00 pm)100% (Apr 20, 3:30 am)30.15 "Hg (Apr 20, 3:30 am)
Low28 °F (Apr 18, 6:30 am)28% (Apr 12, 12:00 pm)29.77 "Hg (Apr 13, 7:30 pm)
Average46 °F63%29.97 "Hg
* Reported Apr 11 12:00 am — Apr 26 12:30 am, Cluj-Napoca, Weather by CustomWeather, © 2017

Note: Actual official high and low records may vary slightly from our data, if they occured in-between our weather recording intervals... More about our weather records

Advertising

Cluj-Napoca Weather History for the Previous 24 Hours

Scroll right to see more
 ConditionsComfort  
Time TempWeatherWind HumidityBarometerVisibility
12:30 am
Wed, Apr 26
48 °FPassing clouds.5 mph71%29.95 "HgN/A
12:00 am48 °FClear.2 mph71%29.98 "Hg10 mi
11:30 pm
Tue, Apr 25
48 °FClear.1 mph71%29.98 "Hg10 mi
11:00 pm48 °FPassing clouds.3 mph71%29.98 "HgN/A
10:30 pm50 °FClear.1 mph62%29.95 "Hg10 mi
10:00 pm52 °FClear.1 mph58%29.95 "Hg10 mi
9:30 pm55 °FClear.No wind51%29.95 "Hg10 mi
9:00 pm55 °FClear.1 mph51%29.95 "Hg10 mi
8:30 pm57 °FClear.6 mph48%29.95 "Hg10 mi
8:00 pm64 °FSunny.9 mph34%29.95 "Hg10 mi
7:30 pm64 °FPassing clouds.12 mph34%29.95 "HgN/A
7:00 pm66 °FPassing clouds.6 mph30%29.95 "HgN/A
6:30 pm64 °FPassing clouds.5 mph40%29.95 "HgN/A
6:00 pm64 °FPassing clouds.3 mph37%29.95 "HgN/A
5:30 pm66 °FPassing clouds.2 mph32%29.95 "HgN/A
5:00 pm64 °FPassing clouds.2 mph34%29.98 "HgN/A
4:30 pm64 °FPassing clouds.5 mph34%29.98 "HgN/A
4:00 pm66 °FPassing clouds.3 mph35%29.98 "HgN/A
3:30 pm64 °FPassing clouds.8 mph37%29.98 "HgN/A
3:00 pm66 °FPassing clouds.13 mph35%30.01 "HgN/A
2:30 pm63 °FPassing clouds.15 mph37%30.01 "HgN/A
2:00 pm61 °FPassing clouds.15 mph39%30.01 "HgN/A
1:30 pm61 °FPassing clouds.15 mph36%30.01 "HgN/A
1:00 pm61 °FPassing clouds.12 mph36%30.04 "HgN/A
12:30 pm57 °FPassing clouds.14 mph41%30.04 "HgN/A
12:00 pm55 °FPassing clouds.12 mph44%30.04 "HgN/A
11:30 am54 °FSunny.16 mph47%30.07 "Hg10 mi
11:00 am52 °FSunny.14 mph47%30.07 "Hg10 mi
10:00 am48 °FSunny.10 mph54%30.07 "Hg10 mi
9:30 am45 °FSunny.13 mph61%30.09 "Hg10 mi
8:30 am39 °FPassing clouds.6 mph75%30.09 "HgN/A
8:00 am34 °FPartly sunny.1 mph87%30.09 "HgN/A
7:30 am32 °FPartly sunny.2 mph87%30.09 "HgN/A
6:30 am28 °FSunny.1 mph93%30.09 "Hg10 mi
5:30 am30 °FClear.No wind93%30.09 "Hg10 mi
4:30 am30 °FClear.No wind93%30.09 "Hg10 mi
4:00 am30 °FClear.No wind93%30.12 "Hg10 mi
3:30 am32 °FClear.No wind87%30.12 "Hg10 mi
3:00 am32 °FClear.No wind87%30.12 "Hg10 mi
2:30 am34 °FClear.No wind87%30.12 "Hg10 mi
1:30 am36 °FClear.No wind75%30.12 "Hg10 mi
1:00 am36 °FClear.No wind87%30.12 "Hg10 mi
Weather by CustomWeather, © 2017

See weather overviewHow to use our weather pages